Location: Berville
(49.1893°N, 2.0748°E)
Time: 17:44:46
(UTC+00:00)

Cosmos 1356 Rocket - Pass Details

Date: 08 February 2023
Orbit: 538 x 590 km, 81.2° (Epoch: 30 March)

Event Time Altitude Azimuth Distance (km) Brightness Sun altitude
Rises 18:49:40 0° 177° (S) 2,688 6.8 -18.3°
Reaches altitude 10° 18:51:51 10° 173° (S) 1,798 5.9 -18.7°
Enters shadow 18:55:28 51° 110° (ESE) 690 3.4 -19.3°
